AAS weather

Apalapsili Airport
Apalapsili, Papua, Indonesia

Public forecast

Using degrees Celsius for public forecast. Weather courtesy of forecast.io.

METAR (pilot weather report)

Closest report is Sentani International Airport, 106.6 nm (197.5 km) NE. Retrieved 2019/07/23 23:30 UTC (12 minutes ago):

WAJJ 232330Z 12005KT 9999 SCT013 27/23 Q1011 NOSIG

TAF (pilot weather forecast)

Forecast is more than 12 hours old.

Closest forecast is Sentani International Airport, 106.6 nm (197.5 km) NE. Retrieved 2013/03/11 12:00 UTC (6 years ago):

TAF WAJJ 111100Z 1112/1212 29006KT 5000 HZ SCT016 TEMPO 1113/1121 4000 RA FEW014CB BECMG 1200/1202 28012KT 9999 TEMPO 1207/1212 6000 RA FEW014CB